Flag for Germany Weather past 2 weeks in Wolfenbüttel, Lower Saxony, Germany

Now
75 °F

Passing clouds.


Feels Like: 78 °F
Forecast: 58 / 80 °F
Wind: 5 mph from Northwest

Location: Braunschweig

Current Time: Jul 31, 2014 at 8:11:27 PM

Latest Report: Jul 31, 2014 at 7:20 PM


Visibility: N/A

Pressure: 29.95 "Hg

Humidity: 44%

Dew point: 52 °F

Location of WolfenbüttelLocation

Historic Weather in Wolfenbüttel — Graph

°F

Wolfenbüttel temperature yesterday

Maximum temperature yesterday: 72 °F (at 5:50 PM)
Minimum temperature yesterday: 66 °F (at 6:50 AM)
Average temperature yesterday: 68 °F

Past Weeks' High & Low Weather Summary

 TemperatureHumidityPressure
High93 °F (Jul 20, 1:50 PM)100% (Jul 17, 5:50 AM)30.21 "Hg (Jul 17, 5:50 AM)
Low55 °F (Jul 17, 5:50 AM)24% (Jul 19, 4:50 PM)29.74 "Hg (Jul 29, 4:50 PM)
Average74 °F67%29.97 "Hg
* Reported Jul 16 6:20 PM — Jul 31 6:50 PM, Wolfenbüttel, Weather by CustomWeather, © 2014

Note: Actual official high and low records may vary slightly from our data, if they occured in-between our weather recording intervals... More about our weather records

Advertising

Wolfenbüttel weather history for previous 24 hours

 ConditionsComfort  
Time TempWeatherWind HumidityBarometerVisibility
6:50 PM
Jul 31
75 °FSunny.3 mph41%29.95 "Hg10 mi
6:20 PM75 °FPassing clouds.8 mph41%29.95 "HgN/A
5:50 PM75 °FPassing clouds.6 mph41%29.95 "HgN/A
5:20 PM75 °FPassing clouds.8 mph41%29.98 "HgN/A
4:50 PM73 °FPassing clouds.8 mph47%29.98 "HgN/A
4:20 PM75 °FPassing clouds.8 mph44%29.98 "HgN/A
3:50 PM75 °FPassing clouds.9 mph47%29.98 "HgN/A
3:20 PM73 °FScattered clouds.8 mph50%29.98 "HgN/A
2:50 PM72 °FScattered clouds.9 mph57%29.98 "HgN/A
2:20 PM72 °FScattered clouds.7 mph57%29.98 "HgN/A
1:50 PM72 °FPassing clouds.6 mph53%29.98 "HgN/A
1:20 PM70 °FPassing clouds.7 mph60%29.98 "HgN/A
12:50 PM70 °FPassing clouds.8 mph60%29.98 "HgN/A
12:20 PM70 °FPassing clouds.6 mph60%29.98 "HgN/A
11:50 AM68 °FScattered clouds.8 mph69%30.01 "HgN/A
11:20 AM68 °FPartly sunny.8 mph69%29.98 "HgN/A
10:50 AM66 °FScattered clouds.10 mph73%29.98 "HgN/A
10:20 AM66 °FScattered clouds.9 mph73%29.98 "HgN/A
9:50 AM66 °FScattered clouds.10 mph73%29.98 "HgN/A
9:20 AM64 °FPassing clouds.9 mph78%29.98 "HgN/A
8:50 AM64 °FPassing clouds.8 mph83%29.98 "HgN/A
8:20 AM63 °FPassing clouds.9 mph88%29.98 "HgN/A
7:50 AM63 °FPassing clouds.7 mph88%29.98 "HgN/A
7:20 AM63 °FPassing clouds.3 mph94%29.98 "HgN/A
6:50 AM61 °FScattered clouds.2 mph100%29.98 "HgN/A
9:50 PM
Jul 30
66 °FPassing clouds.5 mph73%29.89 "HgN/A
9:20 PM68 °FSunny.6 mph69%29.89 "Hg10 mi
8:50 PM70 °FSunny.7 mph64%29.89 "Hg10 mi
8:20 PM72 °FPassing clouds.7 mph69%29.86 "HgN/A
Weather by CustomWeather, © 2014

See weather overviewHow to use our weather pages